Tracking 29892 objects as of 21-Nov-2024
HD Live streaming from Space Station
objects crossing your sky now

GLOBALSTAR M079

Track GLOBALSTAR M079 now!
10-day predictions
GLOBALSTAR M079 is classified as:


NORAD ID: 37188
Int'l Code: 2010-054A
Perigee: 1,420.2 km
Apogee: 1,421.3 km
Inclination: 52.0 °
Period: 114.1 minutes
Semi major axis: 7791 km
RCS: 5.1171 m2 (large)
Launch date: October 19, 2010
Source: Globalstar (GLOB)
Launch site: TYURATAM MISSILE AND SPACE COMPLEX (TTMTR)
Your satellite tracking list
Your tracking list is empty




NASA's NSSDC Master Catalog

Two Line Element Set (TLE):
1 37188U 10054A   24326.15277390 -.00000085  00000-0  10707-3 0  9990
2 37188  52.0057  53.0757 0000751 140.6688 244.2497 12.62267279650862
Source of the keplerian elements: AFSPC